User: anonymous   Login
Location: D�derode
(51.8092°N, 10.1065°E)
Time: 21:22:56
(UTC+00:00)
Language:

SL-24 R/B - Orbit

View from above orbital plane
View from above orbital plane
View from above satellite
View from above satellite

Ground track
Ground track

The orbit data is extracted from the following two-line orbital elements,

1 31699U 07026B   21055.47931628  .00000146  00000-0  30382-4 0  9997
2 31699  97.4374 232.9643 0347860 248.5376 126.5789 14.41422109719885
Epoch (UTC): 24 February 2021 11:30:12
Eccentricity: 0.0347860
inclination: 97.4374°
perigee height: 506 km
apogee height: 1002 km
right ascension of ascending node: 232.9643°
argument of perigee: 248.5376°
revolutions per day: 14.41422109
mean anomaly at epoch: 126.5789°
orbit number at epoch: 71988

The dashed part of the orbit path shows where the satellite is in the earth's shadow,  

DLR